RH
56 56 58 59 56 54 50 45 48 52 55 52 50 54 56 56 58 50 43 38 39 44 48 50 51 55 50 49 48 51 52 52 51 53 56 56 55 55 53 51 52 52 53 55 48 49 51 49 51
56 56 56 52 43 40 48 46 46 48 45 45 48 53 56 57 58 47 42 39 40 43 46 49 51 54 51 51 50 54 54 52 52 51 53 55 56 54 54 53 55 56 53 56 53 53 51 54 56
54 50 49 50 51 47 49 48 46 48 47 43 44 49 52 54 56 42 42 40 40 43 44 45 51 51 51 50 54 52 53 53 51 52 54 54 52 53 57 55 55 54 57 50 51 55 53 54 56
45 41 44 49 51 50 50 49 48 46 45 46 35 40 45 55 47 42 43 45 45 43 44 44 48 53 55 52 52 53 52 51 51 51 52 53 54 53 51 54 50 52 55 58 60 57 56 63 65
42 36 41 47 48 48 47 48 48 45 43 44 37 37 41 44 44 43 44 47 47 46 46 46 47 53 56 56 55 56 56 56 62 62 63 61 56 56 56 50 46 49 51 51 54 58 55 57 61
42 37 39 42 46 48 49 50 49 45 41 42 44 39 40 40 41 43 46 48 49 46 50 50 50 51 53 53 55 60 60 60 64 63 64 66 66 62 56 53 51 51 53 52 50 55 55 54 55
38 36 39 41 44 47 47 50 52 44 41 42 45 49 42 41 42 42 44 47 50 49 52 51 50 51 52 55 56 56 57 59 59 60 64 65 65 66 65 63 60 60 55 59 65 56 55 56 55
37 35 39 41 44 45 43 50 51 45 46 41 49 52 46 41 37 40 42 47 49 48 51 49 49 51 53 56 60 58 57 62 62 62 64 68 69 68 70 74 76 76 68 67 60 59 58 57 59
35 35 36 37 42 43 43 50 52 50 48 41 46 54 48 41 39 40 40 42 45 47 49 52 50 50 51 55 54 55 56 58 60 63 71 74 84 84 85 88 84 80 83 81 68 68 62 61 62
33 32 30 34 39 42 43 49 52 53 52 46 48 48 48 46 44 43 43 39 40 43 46 49 51 51 50 51 54 57 55 54 55 61 69 80 88 86 89 88 86 82 78 77 80 77 73 73 73
33 29 28 34 37 38 44 47 52 52 49 45 46 51 50 46 46 45 43 41 39 40 43 46 49 51 51 49 52 54 54 53 57 62 69 82 90 88 89 91 85 88 90 89 86 84 86 81 78
32 27 30 34 35 38 42 47 50 50 47 46 40 46 47 43 44 47 52 48 45 42 40 42 45 49 49 49 50 51 53 56 62 62 68 76 84 88 91 90 87 88 93 94 93 89 86 85 79
34 31 30 32 34 37 41 44 50 53 48 49 44 41 40 42 42 53 60 56 54 46 43 41 42 43 46 47 51 54 55 59 62 63 65 66 72 80 85 87 88 89 93 93 95 95 91 88 88
35 34 33 34 35 37 40 44 49 55 55 55 54 45 38 40 47 57 63 64 62 57 51 44 41 42 44 47 53 55 56 59 61 63 67 66 67 69 73 76 78 82 85 86 92 93 92 89 89
35 36 33 35 34 36 39 44 46 51 56 57 57 54 46 40 47 55 71 76 74 69 64 55 50 48 49 51 56 58 59 59 60 63 69 72 73 74 70 72 68 68 67 71 84 90 91 88 88
38 35 30 32 34 38 40 40 44 48 53 56 59 56 50 46 42 53 69 76 76 76 79 66 58 56 55 56 58 59 62 63 63 68 69 70 71 74 75 81 76 62 56 62 74 86 88 87 88
39 36 30 29 36 39 39 40 43 47 50 54 56 59 52 46 42 46 64 68 72 78 79 72 65 63 64 63 59 59 62 66 70 77 79 77 76 79 71 60 59 55 58 67 78 82 90 89 90
39 38 34 31 34 40 38 36 40 44 47 48 53 55 51 47 44 41 52 62 65 71 71 69 70 71 72 76 64 63 70 75 80 80 82 79 78 68 58 59 56 62 68 71 83 83 83 86 84
35 39 41 32 34 39 40 32 37 42 45 47 48 51 53 47 46 34 38 51 56 61 68 72 72 71 70 69 67 70 75 79 79 77 77 68 66 64 65 66 59 68 75 66 72 74 81 80 78
35 36 38 39 35 39 39 32 35 38 41 43 46 50 51 48 44 38 30 36 45 49 54 60 64 66 67 65 69 73 76 79 75 78 65 59 60 62 69 61 59 56 56 67 67 71 67 55 51
32 36 37 36 39 36 37 32 34 37 38 40 42 46 47 45 45 41 37 31 33 40 44 48 53 62 66 66 67 69 73 76 79 75 68 64 60 53 51 43 32 32 35 37 39 41 39 38 41
28 34 35 34 34 37 37 35 32 34 36 39 37 40 43 45 44 43 46 38 31 32 38 40 44 48 53 59 62 64 70 67 62 55 54 51 48 42 35 29 23 19 17 20 23 26 29 33 39
22 30 29 32 36 39 42 37 34 35 28 30 33 36 40 41 43 40 42 44 46 34 33 36 36 41 44 44 49 58 61 60 52 50 50 51 41 32 30 23 18 17 17 18 21 25 27 26 28
16 21 29 33 32 40 41 40 35 31 27 25 29 33 39 41 41 39 41 43 44 44 34 33 34 37 41 43 43 44 50 57 56 54 56 57 46 37 26 24 26 27 24 23 24 25 24 22 22
14 15 24 37 35 37 41 40 34 31 28 27 28 31 37 38 36 39 38 40 39 43 32 33 33 36 39 43 46 46 50 55 62 61 63 57 54 47 37 33 33 31 33 35 34 32 27 22 21
14 16 27 39 36 37 37 36 30 29 30 29 28 31 35 37 37 40 40 38 39 43 34 33 36 39 45 47 49 52 57 58 62 60 53 51 55 58 56 42 34 33 33 34 36 38 38 34 27
17 22 26 30 33 32 33 29 24 29 30 29 30 32 34 35 38 45 40 45 42 39 37 34 37 42 50 51 49 52 56 60 62 57 50 50 63 63 61 50 41 38 36 34 34 36 38 40 37
16 26 28 32 37 38 33 29 20 29 29 30 29 31 32 36 42 46 46 50 53 56 39 37 42 46 51 54 53 55 58 60 59 54 48 54 54 62 65 60 51 48 42 38 36 36 36 36 34
18 22 27 28 34 33 31 24 21 27 27 29 30 33 32 35 43 48 52 55 57 59 42 39 45 48 51 59 58 60 61 63 59 59 55 63 66 63 68 67 60 55 48 43 41 38 36 33 28
19 21 24 27 32 34 31 23 21 26 27 30 32 32 34 37 41 47 52 52 56 56 42 44 50 57 62 61 61 66 68 64 62 50 58 62 63 69 74 69 65 59 57 48 42 40 35 31 27